Theta_e
322 323 321 319 318 318 317 316 316 314 312 311 309 307 308 308 308 310 311 311 310 308 308 308 309 309 310 310 311 312 312 311 310 310 310 309 307 306 308 312 317 322 322
319 318 320 318 318 318 318 315 311 310 309 308 308 308 308 308 307 308 309 309 306 304 303 303 304 303 303 307 311 311 310 311 312 310 311 311 309 308 305 306 311 317 320
320 320 316 317 316 313 310 309 308 309 309 308 308 307 307 307 306 309 308 308 307 307 305 305 305 305 304 303 304 309 311 312 312 312 311 311 311 310 307 305 306 308 316
318 315 312 310 310 309 307 308 308 308 308 307 307 306 306 305 305 309 308 307 307 306 307 306 305 305 304 304 304 305 307 309 311 313 312 312 313 311 310 307 306 306 307
311 310 309 309 308 307 307 307 307 306 306 306 305 304 305 305 305 306 307 307 307 306 306 305 303 302 303 302 304 306 306 306 308 309 312 313 313 315 313 310 308 306 306
310 309 309 308 307 307 306 306 306 306 305 305 305 304 305 303 303 304 305 305 304 303 303 303 302 302 301 300 300 300 300 302 303 305 307 310 312 315 316 313 310 308 306
308 308 307 307 307 307 307 306 305 305 304 304 302 301 301 300 302 303 303 301 301 302 300 300 300 299 298 298 297 298 296 295 295 296 299 303 306 311 316 315 314 311 308
308 307 307 307 307 306 306 306 304 302 301 302 301 300 299 299 299 301 300 299 299 299 298 297 297 296 296 296 297 295 296 295 293 293 294 295 299 303 309 315 315 312 311
306 306 306 305 305 305 304 304 302 301 300 300 299 298 298 298 297 297 297 296 297 295 295 294 294 293 293 294 294 296 296 294 292 292 292 293 294 296 301 307 313 314 312
304 304 304 303 302 302 302 302 300 300 298 297 297 297 296 295 296 295 295 295 293 293 292 292 293 291 291 292 292 293 294 292 291 292 293 293 294 297 296 300 307 311 313
303 303 302 302 301 300 301 301 300 298 297 297 296 295 295 294 293 292 292 293 292 292 291 291 290 291 291 291 290 291 292 291 291 292 293 293 294 300 301 299 300 307 311
296 296 297 300 301 301 302 300 298 297 296 295 293 292 292 292 291 291 291 291 291 291 290 290 290 290 290 290 290 289 291 290 291 292 293 292 293 297 300 300 299 302 308
295 295 294 297 300 301 300 297 296 296 295 293 292 291 291 291 291 291 290 290 290 290 290 290 290 289 289 289 290 290 289 289 292 292 292 293 293 295 298 301 303 306 306
295 296 297 299 300 299 297 296 297 295 294 292 291 291 291 291 290 290 290 289 289 289 289 289 289 288 288 288 288 287 289 290 292 291 292 293 293 295 296 298 303 307 309
295 297 298 299 299 297 297 296 295 294 293 291 291 291 290 290 289 289 289 289 289 289 288 288 287 288 288 287 287 287 288 289 291 292 293 293 293 295 296 298 300 301 303
294 296 297 298 297 297 296 295 293 292 291 290 290 290 289 289 288 288 288 288 287 287 287 287 287 287 287 287 287 288 288 288 290 291 292 294 293 293 294 295 299 299 301
294 295 296 296 296 295 294 294 292 291 291 290 290 290 289 288 288 288 287 287 287 287 286 286 286 286 286 286 287 287 288 288 290 291 290 292 293 291 290 291 295 297 300
293 294 294 294 294 294 294 292 291 291 291 290 290 289 288 288 287 287 287 287 286 286 285 285 285 285 285 285 285 286 287 288 290 291 290 288 288 291 291 290 291 296 296
294 294 294 294 293 293 291 291 291 291 290 289 289 288 288 287 287 286 286 286 285 285 285 284 284 284 284 284 285 286 286 288 289 290 288 289 289 288 290 290 290 292 296
293 294 294 293 293 291 290 290 290 290 289 289 288 288 287 286 285 285 284 284 284 283 283 283 283 283 283 284 284 285 287 288 288 289 288 287 287 288 288 290 291 295 294
293 294 292 292 291 290 290 290 290 289 289 287 286 285 284 283 282 281 281 282 282 282 282 282 282 283 283 283 284 284 285 286 287 288 288 288 288 289 290 291 292 294 294
293 293 293 292 292 290 291 290 288 288 286 286 284 283 283 282 281 281 280 279 279 280 280 281 282 283 282 283 284 284 285 285 286 287 288 287 287 288 289 289 289 292 294
293 292 293 292 291 290 289 288 288 287 286 284 283 282 282 281 281 281 280 280 281 281 280 280 281 281 282 283 283 283 284 284 285 285 286 286 286 287 287 287 288 288 292
292 291 291 291 291 289 289 288 287 286 284 283 282 282 281 281 281 279 279 280 281 281 281 281 281 281 282 282 282 283 283 283 284 284 285 285 286 286 287 287 287 286 290
291 291 291 290 289 287 288 286 287 285 283 282 282 281 280 280 279 278 279 279 280 280 281 280 279 279 280 280 280 281 281 282 284 284 285 285 285 286 286 287 287 287 287
291 290 289 288 288 287 286 287 286 283 282 282 282 280 279 280 278 277 277 278 279 279 279 279 279 280 281 281 281 281 281 282 283 284 285 284 284 285 286 286 287 287 287
Wind_Speed
4 8 13 11 10 11 12 12 12 16 18 15 17 21 19 19 23 14 13 21 22 23 21 20 19 20 22 23 21 19 18 19 18 18 16 14 14 15 15 16 16 19 22
15 11 18 14 13 15 17 16 19 21 16 18 14 17 17 16 14 16 13 17 20 22 23 23 23 22 22 23 24 25 23 22 22 22 19 17 17 16 17 16 17 19 20
9 10 12 13 14 17 19 20 18 14 14 15 16 16 16 15 15 14 15 14 15 20 26 30 29 30 28 26 24 24 24 24 23 23 25 23 21 19 18 18 19 19 20
2 9 11 14 17 19 18 15 13 14 16 17 17 17 18 17 18 17 17 16 18 19 20 23 30 34 31 26 26 25 24 23 22 24 24 26 23 23 20 19 20 21 21
5 9 13 17 17 16 15 14 11 15 15 17 18 20 21 22 23 23 22 18 16 13 15 20 26 28 29 29 28 27 26 24 24 22 24 25 26 22 24 22 22 22 21
9 11 13 16 14 9 10 11 15 15 16 16 19 25 23 24 24 22 19 17 16 15 14 14 15 15 22 27 30 32 31 30 29 27 24 23 24 27 24 25 26 24 23
12 13 9 11 12 12 14 16 16 18 20 18 21 23 23 23 17 19 17 18 18 16 16 18 18 19 20 23 24 24 33 34 31 32 32 30 25 25 28 29 29 28 25
14 12 15 14 14 16 17 16 16 18 18 16 17 21 23 23 20 13 19 20 19 20 21 21 21 21 21 22 22 28 25 32 36 34 32 34 34 30 26 28 29 29 28
16 17 17 18 19 18 18 16 14 13 13 14 15 17 21 23 26 24 19 22 20 22 21 21 21 20 20 21 21 21 23 29 32 33 34 33 33 34 34 28 30 31 31
21 23 20 24 23 20 18 14 12 12 10 15 18 18 18 19 23 27 23 24 23 21 22 21 20 21 21 20 22 22 25 29 27 30 31 33 31 30 33 34 31 33 32
18 19 21 20 20 19 16 12 10 8 11 14 20 19 18 18 18 20 25 23 22 20 20 20 22 20 22 22 22 22 28 29 27 28 29 30 29 26 27 32 35 33 34
19 19 19 20 19 16 13 9 7 10 13 15 12 12 13 15 17 18 21 23 24 23 21 22 21 23 23 23 23 25 27 28 28 28 27 28 29 24 24 26 31 35 34
19 19 20 18 14 13 9 8 8 18 11 12 11 12 14 15 16 18 21 24 26 27 26 24 24 24 25 25 23 24 26 24 27 27 25 26 25 23 23 22 25 28 32
18 20 18 12 8 7 7 11 13 13 12 11 12 14 17 18 18 19 20 22 29 32 30 30 28 27 25 24 28 29 23 22 28 24 24 24 23 20 22 24 25 28 29
18 17 14 7 7 7 13 12 14 12 10 12 15 17 18 19 19 18 18 20 25 34 36 34 33 27 27 26 26 26 23 22 29 23 22 20 17 16 17 23 25 23 23
18 15 11 9 10 11 14 17 13 11 11 13 16 18 19 18 18 18 20 23 25 29 37 34 33 30 28 27 25 25 24 22 22 24 21 16 15 12 15 19 20 22 26
16 13 11 13 14 18 19 16 11 13 13 15 18 20 20 19 20 22 24 25 27 28 34 39 32 29 28 28 24 23 21 20 21 18 10 9 13 15 14 15 17 18 24
16 13 12 15 18 20 16 10 12 14 17 19 20 20 21 22 24 25 25 26 28 28 30 36 31 29 27 27 26 25 22 22 23 19 15 5 6 9 15 14 14 14 18
15 13 13 14 14 12 11 12 14 15 16 17 19 20 23 24 25 24 25 26 26 24 23 29 32 28 27 24 24 22 22 21 22 17 14 18 12 8 8 13 15 14 17
14 12 12 13 12 11 11 12 12 13 14 17 19 21 23 22 22 22 23 23 22 22 22 27 29 26 24 22 21 20 19 18 22 15 13 12 13 11 9 11 14 14 14
13 13 11 11 11 11 15 16 20 14 17 18 19 19 18 20 28 23 18 19 20 21 20 22 25 24 21 20 19 20 19 17 16 12 14 12 11 9 8 7 13 13 19
14 14 15 13 11 10 19 18 14 17 16 18 18 18 17 18 15 20 19 20 18 19 22 22 23 23 23 20 18 16 17 15 16 10 8 12 8 9 9 7 14 12 15
14 15 16 13 13 9 16 16 19 19 20 16 16 16 16 15 18 16 18 20 21 20 21 21 22 22 22 19 18 18 17 15 14 15 6 8 9 9 10 10 13 12 9
15 14 13 12 10 12 16 18 18 22 18 15 15 15 14 15 15 20 18 20 19 19 18 18 19 20 20 20 17 16 17 19 18 16 13 15 13 11 10 9 13 10 7
14 14 13 10 11 11 17 18 21 23 19 17 14 12 15 14 16 18 18 19 19 18 17 19 22 23 20 20 19 18 19 18 18 17 16 15 16 14 13 13 11 15 9
15 12 13 16 16 15 17 20 22 20 17 15 12 12 16 18 20 18 17 17 18 18 21 21 19 16 16 15 15 15 18 19 19 14 13 16 15 14 13 13 11 12 18
Wind_Direction
270 309 287 274 281 297 308 313 318 319 317 320 317 315 310 307 307 306 306 305 306 308 304 300 297 293 292 288 284 278 274 273 278 285 285 280 269 261 255 256 253 250 255
293 254 269 275 287 297 300 305 305 310 313 316 312 313 307 304 303 298 295 300 302 305 309 309 307 304 298 291 286 279 274 270 265 270 275 281 283 272 261 251 251 249 247
280 256 251 275 292 295 297 307 319 320 316 313 311 311 307 303 304 302 302 295 301 310 304 307 309 310 305 294 286 284 282 274 264 260 264 270 275 280 270 258 252 247 246
269 251 273 289 297 301 304 315 318 313 312 311 308 306 300 300 300 301 298 291 289 294 302 296 297 300 299 292 286 282 281 282 278 266 258 261 264 263 269 263 253 251 245
249 273 289 304 303 299 303 308 311 312 310 303 304 305 299 297 296 295 291 290 294 294 289 290 290 287 283 283 282 281 282 282 281 279 270 259 257 261 260 265 261 252 249
288 293 302 306 300 311 313 310 313 309 311 301 302 303 298 297 294 291 285 289 293 297 303 301 305 291 294 288 280 284 281 283 284 279 279 270 257 252 255 254 257 257 249
304 305 318 319 318 313 304 309 307 306 306 299 309 301 302 305 295 296 287 296 296 296 305 304 307 300 300 298 301 301 282 290 286 287 281 273 271 256 250 247 248 252 253
308 317 310 311 308 306 305 298 305 308 304 306 314 313 311 304 302 293 291 291 294 294 299 299 302 307 306 304 301 297 303 290 290 290 285 282 271 266 258 249 247 248 250
306 311 309 307 307 308 304 294 295 306 301 305 314 320 320 312 306 298 287 293 294 299 302 303 305 308 310 307 309 302 294 290 292 291 289 284 280 269 263 258 249 246 243
308 306 305 303 304 303 296 291 293 301 304 308 307 306 303 299 300 301 288 288 295 297 302 307 301 309 311 310 306 309 301 297 296 292 288 286 281 276 262 256 253 250 243
312 308 305 299 297 297 286 278 280 290 306 312 307 304 299 294 295 295 299 299 297 297 298 301 302 305 309 308 308 305 293 301 300 293 287 282 283 276 271 257 247 248 246
312 308 302 298 291 284 273 266 270 301 303 306 301 302 301 301 301 300 299 301 301 301 299 302 302 304 304 303 303 300 300 300 302 300 289 282 281 275 267 258 254 242 242
323 318 312 302 286 269 247 257 275 309 297 293 296 301 299 299 299 298 299 299 300 300 301 301 303 301 300 299 299 296 297 307 300 299 287 282 280 276 262 255 246 234 238
326 323 319 305 264 248 245 285 308 302 290 290 297 302 300 299 300 297 295 299 301 300 302 304 304 303 300 295 290 297 297 293 292 293 278 276 277 276 267 255 253 234 224
329 325 323 301 247 261 298 303 303 291 286 298 301 303 300 298 298 294 292 293 297 301 301 305 306 306 302 299 296 293 286 281 290 289 281 272 278 271 271 256 253 259 249
331 327 311 280 266 302 300 299 290 285 292 301 304 305 305 301 298 297 295 294 293 293 295 299 302 302 302 301 299 295 289 277 281 284 277 260 267 274 274 267 252 247 246
325 318 301 276 279 293 294 286 278 284 287 301 307 307 306 304 300 297 297 295 294 293 292 294 297 299 298 299 297 297 288 273 267 268 262 270 259 275 280 277 261 253 248
319 308 296 288 289 293 289 272 277 288 289 298 307 307 305 303 299 299 297 294 293 291 289 289 296 298 296 296 294 291 289 263 267 263 263 262 329 284 269 284 276 263 252
314 307 301 294 295 287 279 277 287 291 287 296 304 305 305 303 301 299 296 294 291 290 286 287 294 297 297 296 295 288 288 268 265 260 289 266 299 310 287 281 285 259 262
311 309 301 296 296 289 279 282 291 296 294 303 305 305 303 302 299 298 299 297 295 292 290 289 292 295 296 296 291 290 295 274 255 259 251 272 283 299 300 296 283 257 256
307 299 302 302 293 289 290 295 301 295 303 306 308 305 304 294 301 304 302 298 296 295 292 293 292 294 294 297 290 291 296 290 298 251 252 265 269 266 289 312 298 253 234
302 299 292 288 293 281 303 302 295 309 307 311 309 310 310 309 306 313 319 313 309 298 294 293 290 290 289 292 292 290 295 285 284 275 262 249 258 261 266 286 290 291 207
303 300 292 284 285 274 310 296 309 312 313 310 312 313 314 314 321 309 308 312 308 303 296 292 290 286 289 285 289 289 290 292 278 275 310 272 266 266 264 270 286 306 249
302 298 297 284 265 270 293 299 309 316 315 314 315 316 315 316 315 303 313 313 308 304 299 293 288 292 290 285 285 284 287 284 279 275 271 266 262 265 263 267 261 275 275
297 291 286 272 262 259 289 302 315 318 315 319 319 318 315 322 305 318 320 314 313 307 303 303 299 295 290 283 280 273 274 271 276 257 249 253 260 267 267 265 260 242 253
282 282 287 286 275 275 294 308 315 317 316 322 322 321 318 324 327 330 322 317 314 312 310 309 309 303 296 292 286 270 266 261 263 284 250 248 255 254 257 255 247 241 229